AFR279 LUKK-EDDF

Flight info

Callsign AFR279
Flight time N/A
Altitude 38000
Route NUNTA DCT PASKA DCT REPTO DCT PITOK DCT ELMEK DCT RAPET T170 VAGAB/N0351F240 T170 GAPLA T178 KERAX KERAX5A
Aircraft A20N/M-SDE2E3FGHIRWXY/LB1

Departure

Time 2026-05-04 18:15
Airport Chişinău International Airport (LUKK)

Arrival

Time N/A
Airport Frankfurt Main Airport (EDDF)
Time Latitude Longitude Altitude Speed Heading
2026-05-04 17:31 46.93408 28.93232 321 ft 0 kts
2026-05-04 18:03 46.93413 28.93233 321 ft 2 kts
2026-05-04 18:03 46.93433 28.93248 320 ft 5 kts 52°
2026-05-04 18:04 46.93449 28.93323 317 ft 10 kts 77°
2026-05-04 18:04 46.93438 28.93417 315 ft 4 kts 103°
2026-05-04 18:04 46.93415 28.93474 313 ft 0 kts 145°
2026-05-04 18:05 46.93410 28.93477 313 ft 2 kts 154°
2026-05-04 18:05 46.93404 28.93481 313 ft 3 kts 165°
2026-05-04 18:05 46.93396 28.93483 313 ft 3 kts 174°
2026-05-04 18:06 46.93290 28.93464 315 ft 5 kts 187°
2026-05-04 18:06 46.93254 28.93457 316 ft 5 kts 187°
2026-05-04 18:06 46.93216 28.93450 317 ft 5 kts 187°
2026-05-04 18:07 46.93177 28.93440 318 ft 5 kts 203°
2026-05-04 18:07 46.93156 28.93401 319 ft 4 kts 258°
2026-05-04 18:07 46.93159 28.93354 320 ft 4 kts 277°
2026-05-04 18:07 46.93164 28.93303 321 ft 6 kts 277°
2026-05-04 18:08 46.93170 28.93228 322 ft 8 kts 277°
2026-05-04 18:08 46.93177 28.93149 324 ft 7 kts 278°
2026-05-04 18:08 46.93185 28.93066 325 ft 11 kts 276°
2026-05-04 18:08 46.93194 28.92939 328 ft 19 kts 277°
2026-05-04 18:09 46.93225 28.92583 335 ft 16 kts 277°
2026-05-04 18:09 46.93256 28.92213 350 ft 24 kts 277°
2026-05-04 18:10 46.93250 28.92063 359 ft 10 kts 229°
2026-05-04 18:10 46.93190 28.92017 362 ft 9 kts 194°
2026-05-04 18:10 46.93121 28.91995 363 ft 10 kts 189°
2026-05-04 18:10 46.93042 28.91986 363 ft 12 kts 179°
2026-05-04 18:11 46.92952 28.91991 363 ft 13 kts 179°
2026-05-04 18:11 46.92928 28.91992 363 ft 0 kts 178°
2026-05-04 18:12 46.92886 28.91993 363 ft 12 kts 179°
2026-05-04 18:12 46.92796 28.92005 362 ft 13 kts 158°
2026-05-04 18:13 46.92760 28.92093 359 ft 0 kts 94°
2026-05-04 18:13 46.92760 28.92094 359 ft 2 kts 94°
2026-05-04 18:14 46.92773 28.92428 344 ft 55 kts 87°
2026-05-04 18:14 46.92774 28.93032 330 ft 88 kts 88°
2026-05-04 18:14 46.92801 28.94297 299 ft 157 kts 89°
2026-05-04 18:15 46.92817 28.97695 1745 ft 168 kts 88°
2026-05-04 18:15 46.92904 29.01158 3094 ft 189 kts 85°
2026-05-04 18:15 46.92954 29.03157 3675 ft 207 kts 85°
2026-05-04 18:16 46.93109 29.05299 4251 ft 222 kts 68°
2026-05-04 18:16 46.93985 29.07208 4872 ft 236 kts 39°
2026-05-04 18:16 46.95477 29.08244 5569 ft 250 kts 11°
2026-05-04 18:17 46.98752 29.06606 7414 ft 273 kts 319°
2026-05-04 18:17 46.99746 29.04175 8315 ft 289 kts 290°
2026-05-04 18:17 47.00337 28.98344 9716 ft 293 kts 283°
2026-05-04 18:18 47.00608 28.95339 10103 ft 303 kts 283°
2026-05-04 18:18 47.00893 28.92240 10763 ft 313 kts 283°
2026-05-04 18:18 47.01191 28.89048 11474 ft 320 kts 283°
2026-05-04 18:18 47.01492 28.85818 12231 ft 325 kts 283°
2026-05-04 18:19 47.02104 28.79244 13762 ft 333 kts 283°
2026-05-04 18:19 47.02419 28.75861 14491 ft 337 kts 283°
2026-05-04 18:19 47.02735 28.72467 15231 ft 341 kts 283°
2026-05-04 18:20 47.03068 28.69040 15951 ft 343 kts 285°
2026-05-04 18:20 47.03549 28.65611 16666 ft 345 kts 288°
2026-05-04 18:20 47.04083 28.62220 17340 ft 349 kts 288°
2026-05-04 18:20 47.04634 28.58741 18033 ft 352 kts 288°
2026-05-04 18:21 47.05175 28.55259 18682 ft 356 kts 287°
2026-05-04 18:21 47.05723 28.51689 19335 ft 359 kts 287°
2026-05-04 18:21 47.06259 28.48154 19974 ft 362 kts 287°
2026-05-04 18:21 47.06805 28.44520 20635 ft 365 kts 287°
2026-05-04 18:22 47.07343 28.40918 21273 ft 368 kts 286°
2026-05-04 18:22 47.07889 28.37241 21892 ft 371 kts 286°
2026-05-04 18:22 47.08441 28.33516 22526 ft 374 kts 285°
2026-05-04 18:22 47.08991 28.29778 23138 ft 377 kts 285°
2026-05-04 18:23 47.09534 28.26075 23724 ft 380 kts 285°
2026-05-04 18:23 47.10088 28.22281 24296 ft 383 kts 285°
2026-05-04 18:23 47.10657 28.18457 24874 ft 385 kts 285°
2026-05-04 18:23 47.11234 28.14592 25446 ft 388 kts 285°
2026-05-04 18:24 47.11803 28.10747 25992 ft 390 kts 285°
2026-05-04 18:24 47.12376 28.06845 26525 ft 393 kts 285°
2026-05-04 18:24 47.12941 28.02973 27029 ft 395 kts 285°
2026-05-04 18:24 47.13516 27.99015 27523 ft 398 kts 285°
2026-05-04 18:25 47.14094 27.95022 27997 ft 400 kts 285°
2026-05-04 18:25 47.14669 27.91029 28451 ft 403 kts 285°
2026-05-04 18:25 47.15247 27.87002 28885 ft 405 kts 285°
2026-05-04 18:25 47.15823 27.82978 29297 ft 407 kts 285°
2026-05-04 18:26 47.16406 27.78894 29724 ft 409 kts 285°
2026-05-04 18:26 47.16987 27.74818 30136 ft 410 kts 285°
2026-05-04 18:26 47.17562 27.70760 30502 ft 412 kts 285°
2026-05-04 18:26 47.18148 27.66630 30830 ft 414 kts 285°
2026-05-04 18:27 47.18735 27.62477 31135 ft 416 kts 285°
2026-05-04 18:27 47.19324 27.58301 31423 ft 419 kts 285°
2026-05-04 18:27 47.19907 27.54156 31711 ft 421 kts 285°
2026-05-04 18:27 47.20498 27.49939 31991 ft 423 kts 285°
2026-05-04 18:28 47.21094 27.45673 32274 ft 425 kts 285°
2026-05-04 18:28 47.21686 27.41420 32546 ft 427 kts 284°
2026-05-04 18:28 47.22277 27.37151 32806 ft 428 kts 285°
2026-05-04 18:28 47.22866 27.32897 33110 ft 429 kts 284°
2026-05-04 18:29 47.23454 27.28613 33462 ft 428 kts 284°
2026-05-04 18:29 47.24038 27.24347 33804 ft 427 kts 284°
2026-05-04 18:29 47.24623 27.20060 34130 ft 427 kts 284°
2026-05-04 18:29 47.25203 27.15815 34436 ft 426 kts 284°
2026-05-04 18:30 47.26364 27.07275 34973 ft 426 kts 284°
2026-05-04 18:30 47.26746 27.04463 35141 ft 426 kts 284°
2026-05-04 18:30 47.27322 27.00207 35399 ft 425 kts 284°